sat.trackr.live / text

‹ back to catalog

STARLINK-34717

NORAD 65060 · 2025-165E

PAYLOAD ACTIVE UNKNOWN

§ Identity

Operator
Country
US
Launch date
2025-07-31
Launch site
AFWTR
Launch vehicle
Mass (kg)
RCS (m²)

Purposes: comms

External: N2YO · Heavens-Above · Gunter

§ Orbital elements

Epoch: 2026-05-25T02:52:40.960128Z

Period
95.64 min
Inclination
97.4504°
Eccentricity
0.0003046
Mean motion
15.05666155 rev/d
Perigee alt
547.4 km
Apogee alt
551.6 km
Semi-major
6,927.6 km
B*
1.4989e-4
RAAN
222.2382°
Arg perigee
119.9055°
Mean anomaly
240.2475°
Rev number
4,629

§ Raw data

STARLINK-347171 65060U 25165E   26145.11991852  .00002106  00000+0  14989-3 0  99922 65060  97.4504 222.2382 0003046 119.9055 240.2475 15.05666155 46297

JSON: /api/v1/satellites/65060 · /tle

For live sub-satellite position, see the globe view (requires WebGL).

§ Visibility from observer

Set your observer location to see the next 7 days of passes ≥ 10°. The values pass through the URL so the page stays shareable.

No JS? Fill the form by hand. The geolocation button needs JavaScript.